Hourly Data Report for December 15, 2006

TORONTO CITY
ONTARIO

43°40'00.000" N
79°24'00.000" W
112.50 m
6158355
71508
XTO

Download Data

Hourly Data (December 2006)
Hourly Data Report for December 15, 2006
TIME
LST
Temp Definition
°C
Dew Point Definition
°C
Rel Hum Definition
%
Precip. Amount Definition
mm

Wind Dir Definition
10's deg

Wind Spd Definition
km/h
Visibility Definition
km
Stn Press Definition
kPa
Hmdx Definition


Wind Chill Definition


Weather Definition


00:00 9.3 4.4 71   LegendMM LegendMM   98.82     LegendNANA
01:00 8.7 4.7 76   LegendMM LegendMM   98.82     LegendNANA
02:00 9.9 5.3 73   LegendMM LegendMM   98.81     LegendNANA
03:00 9.6 5.1 73   LegendMM LegendMM   98.83     LegendNANA
04:00 8.7 4.9 77   LegendMM LegendMM   98.79     LegendNANA
05:00 7.7 5.1 84   LegendMM LegendMM   98.76     LegendNANA
06:00 8.0 5.2 82   LegendMM LegendMM   98.75     LegendNANA
07:00 8.3 5.3 81   LegendMM LegendMM   98.77     LegendNANA
08:00 7.2 5.1 86   LegendMM LegendMM   98.76     LegendNANA
09:00 8.3 5.6 83   LegendMM LegendMM   98.80     LegendNANA
10:00 9.2 4.6 73   LegendMM LegendMM   98.79     LegendNANA
11:00 9.8 4.1 68   LegendMM LegendMM   98.76     LegendNANA
12:00 9.9 3.4 64   LegendMM LegendMM   98.72     LegendNANA
13:00 9.4 2.8 63   LegendMM LegendMM   98.71     LegendNANA
14:00 8.8 2.5 65   LegendMM LegendMM   98.77     LegendNANA
15:00 7.9 2.2 67   LegendMM LegendMM   98.88     LegendNANA
16:00 7.7 2.3 69   LegendMM LegendMM   98.97     LegendNANA
17:00 7.0 2.1 71   LegendMM LegendMM   99.10     LegendNANA
18:00 6.5 2.4 75   LegendMM LegendMM   99.22     LegendNANA
19:00 6.2 2.7 78   LegendMM LegendMM   99.32     LegendNANA
20:00 6.1 2.4 77   LegendMM LegendMM   99.45     LegendNANA
21:00 6.1 2.5 78   LegendMM LegendMM   99.55     LegendNANA
22:00 5.3 1.4 76   LegendMM LegendMM   99.66     LegendNANA
23:00 4.7 0.7 75   LegendMM LegendMM   99.82     LegendNANA

Notes on Data Quality.

Legend

  • E = Estimated
  • M = Missing
  • NA = Not Available*
  • [empty] = Indicates an unobserved value
Date modified: